Weather History for Kalaeloa, HI

Change the Weather History Date:

Tuesday, August 27, 2013

  Actual Average (PHNL) Record (PHNL)
Temperature  
Mean Temperature 80 °F 82 °F  
Max Temperature 88 °F 89 °F 92 °F (1969)
Min Temperature 71 °F 75 °F 68 °F (1971)
Degree Days  
Heating Degree Days 0 0  
Month to date heating degree days 0  
Since 1 June heating degree days 0  
Since 1 July heating degree days 0  
Cooling Degree Days 14 17  
Month to date cooling degree days 459  
Year to date cooling degree days 2919  
Since 1 June cooling degree days 1417  
Growing Degree Days 30 (Base 50)    
Moisture  
Dew Point 63 °F    
Average Humidity 60    
Maximum Humidity 76    
Minimum Humidity 37    
Precipitation  
Precipitation 0.00 in 0.02 in 0.07 in (1950)
Month to date precipitation 0.48  
Year to date precipitation 8.82  
Snow  
Snow 0.00 in - - ()
Month to date snowfall  
Since 1 June snowfall  
Since 1 July snowfall  
Snow Depth -    
Sea Level Pressure  
Sea Level Pressure 30.09 in    
Wind  
Wind Speed 5 mph (East)    
Max Wind Speed 9 mph    
Max Gust Speed 18 mph    
Visibility 10 miles    
Events      
T = Trace of Precipitation, MM = Missing Value Source: NWS Daily Summary

Daily Weather History Graph

Daily Weather History Graph

Search for Another Location

Airport:

Trip Planner

Search our weather history database for the weather conditions in past years. The results will help you decide how hot, cold, wet, or windy it might be!

Date:

Astronomy

Aug. 27, 2013 Rise Set
Actual Time 6:14 AM HST 6:52 PM HST
Civil Twilight 5:51 AM HST 7:15 PM HST
Nautical Twilight 5:25 AM HST 7:41 PM HST
Astronomical Twilight 4:58 AM HST 8:08 PM HST
Moon 11:50 PM HST (8/27) 12:27 PM HST (8/27)
Length of Visible Light 13h 23m
Length of Day
12h 37m
Waning Gibbous, 55% of the Moon is Illuminated
Aug 27
Waning Gibbous
Aug 27
Last Quarter
Sep 5
New
Sep 12
First Quarter
Sep 19
Full

Hourly Weather History & Observations

Time (HST) Temp. Heat Index Dew Point Humidity Pressure Visibility Wind Dir Wind Speed Gust Speed Precip Events Conditions
12:53 AM 73.9 °F - 64.9 °F 73% 30.12 in 10.0 mi ENE 3.5 mph - N/A   Clear
1:53 AM 73.0 °F - 64.0 °F 73% 30.11 in 10.0 mi ENE 4.6 mph - N/A   Clear
2:53 AM 73.0 °F - 63.0 °F 71% 30.10 in 10.0 mi Calm Calm - N/A   Clear
3:53 AM 72.0 °F - 64.0 °F 76% 30.11 in 10.0 mi East 3.5 mph - N/A   Clear
4:53 AM 71.1 °F - 63.0 °F 75% 30.11 in 10.0 mi East 3.5 mph - N/A   Clear
5:53 AM 73.0 °F - 63.0 °F 71% 30.12 in 10.0 mi ENE 4.6 mph - N/A   Clear
6:53 AM 73.9 °F - 63.0 °F 68% 30.13 in 10.0 mi East 3.5 mph - N/A   Clear
7:53 AM 79.0 °F - 63.0 °F 58% 30.14 in 10.0 mi East 8.1 mph - N/A   Clear
8:53 AM 82.0 °F 83.0 °F 62.1 °F 51% 30.14 in 10.0 mi East 9.2 mph 18.4 mph N/A   Clear
9:53 AM 84.0 °F 84.9 °F 63.0 °F 49% 30.14 in 10.0 mi East 8.1 mph 16.1 mph N/A   Scattered Clouds
10:53 AM 84.0 °F 84.9 °F 63.0 °F 49% 30.12 in 10.0 mi East 9.2 mph - N/A   Mostly Cloudy
11:53 AM 84.9 °F 85.9 °F 63.0 °F 48% 30.11 in 10.0 mi Variable 6.9 mph - N/A   Mostly Cloudy
12:53 PM 87.1 °F 87.5 °F 62.1 °F 43% 30.08 in 10.0 mi East 5.8 mph - N/A   Scattered Clouds
1:53 PM 88.0 °F 87.6 °F 60.1 °F 39% 30.06 in 10.0 mi Variable 6.9 mph - N/A   Clear
2:53 PM 88.0 °F 87.1 °F 59.0 °F 37% 30.04 in 10.0 mi East 5.8 mph - N/A   Clear
3:53 PM 86.0 °F 86.1 °F 61.0 °F 43% 30.03 in 10.0 mi ENE 8.1 mph 18.4 mph N/A   Clear
4:53 PM 84.0 °F 84.4 °F 61.0 °F 46% 30.04 in 10.0 mi ENE 8.1 mph - N/A   Clear
5:53 PM 82.0 °F 83.1 °F 63.0 °F 52% 30.04 in 10.0 mi Variable 4.6 mph - N/A   Clear
6:53 PM 78.1 °F - 64.0 °F 62% 30.05 in 10.0 mi Variable 4.6 mph - N/A   Clear
7:53 PM 77.0 °F - 64.0 °F 64% 30.06 in 10.0 mi Variable 3.5 mph - N/A   Clear
8:53 PM 75.9 °F - 64.9 °F 69% 30.08 in 10.0 mi Calm Calm - N/A   Clear
9:53 PM 75.0 °F - 64.0 °F 69% 30.09 in 10.0 mi Variable 3.5 mph - N/A   Clear
10:53 PM 73.0 °F - 64.0 °F 73% 30.09 in 10.0 mi Calm Calm - N/A   Clear
11:53 PM 73.0 °F - 64.9 °F 76% 30.09 in 10.0 mi Calm Calm - N/A   Clear